TimeCDT,TemperatureF,Dew PointF,Humidity,Sea Level PressureIn,VisibilityMPH,Wind Direction,Wind SpeedMPH,Gust SpeedMPH,PrecipitationIn,Events,Conditions,WindDirDegrees,DateUTC
12:53 AM,75.0,66.0,73,29.86,10.0,ESE,10.4,-,N/A,,Clear,120,2013-07-12 05:53:00
1:53 AM,73.9,66.0,76,29.86,10.0,ESE,9.2,-,N/A,,Clear,120,2013-07-12 06:53:00
2:53 AM,73.9,64.0,71,29.85,10.0,East,5.8,-,N/A,,Clear,100,2013-07-12 07:53:00
3:53 AM,75.0,62.1,64,29.84,10.0,Calm,Calm,-,N/A,,Clear,0,2013-07-12 08:53:00
4:53 AM,73.9,62.1,66,29.83,10.0,Variable,3.5,-,N/A,,Scattered Clouds,0,2013-07-12 09:53:00
5:53 AM,73.9,61.0,64,29.83,10.0,SSE,4.6,-,N/A,,Partly Cloudy,160,2013-07-12 10:53:00
6:53 AM,73.9,61.0,64,29.83,10.0,SE,4.6,-,N/A,,Clear,140,2013-07-12 11:53:00
7:53 AM,75.0,62.1,64,29.83,10.0,SSE,3.5,-,N/A,,Clear,160,2013-07-12 12:53:00
8:53 AM,80.1,63.0,56,29.84,10.0,South,4.6,-,N/A,,Clear,170,2013-07-12 13:53:00
9:53 AM,84.9,63.0,48,29.83,10.0,South,12.7,19.6,N/A,,Clear,180,2013-07-12 14:53:00
10:53 AM,90.0,63.0,40,29.82,10.0,South,13.8,-,N/A,,Clear,170,2013-07-12 15:53:00
11:53 AM,93.9,63.0,36,29.81,10.0,South,8.1,-,N/A,,Clear,180,2013-07-12 16:53:00
12:53 PM,97.0,62.1,31,29.80,10.0,SSE,13.8,21.9,N/A,,Clear,160,2013-07-12 17:53:00
1:53 PM,100.0,62.1,29,29.78,10.0,SE,13.8,18.4,N/A,,Clear,140,2013-07-12 18:53:00
2:53 PM,102.9,59.0,23,29.76,10.0,South,11.5,-,N/A,,Partly Cloudy,190,2013-07-12 19:53:00
3:53 PM,102.0,59.0,24,29.74,10.0,SSE,10.4,20.7,N/A,,Partly Cloudy,160,2013-07-12 20:53:00
4:53 PM,102.9,54.0,20,29.73,10.0,SSE,16.1,26.5,N/A,,Partly Cloudy,160,2013-07-12 21:53:00
5:53 PM,104.0,55.9,20,29.72,10.0,South,15.0,24.2,N/A,,Clear,170,2013-07-12 22:53:00
6:53 PM,102.0,55.0,21,29.71,10.0,South,16.1,24.2,N/A,,Clear,170,2013-07-12 23:53:00
7:53 PM,99.0,55.9,24,29.72,10.0,South,16.1,24.2,N/A,,Clear,170,2013-07-13 00:53:00
8:53 PM,95.0,57.0,28,29.73,10.0,South,11.5,-,N/A,,Clear,170,2013-07-13 01:53:00
9:53 PM,90.0,57.9,34,29.76,10.0,South,11.5,-,N/A,,Clear,170,2013-07-13 02:53:00
10:53 PM,88.0,57.9,36,29.77,10.0,South,12.7,-,N/A,,Clear,170,2013-07-13 03:53:00
11:53 PM,84.9,57.9,40,29.79,10.0,SSE,10.4,-,N/A,,Clear,150,2013-07-13 04:53:00